Weather Roundup
Issued by NWS

Home | Current Version | Previous Version | Graphics & Text | Print | Product List | Glossary Off
Versions: 1 2 3 4 5 6 7 8 9 10 11 12 13 14 15 16 17 18 19 20 21 22 23 24 25 26 27 28 29 30 31 32 33 34 35 36 37 38 39 40 41 42 43 44 45 46 47 48 49 50

000
NZUS93 KARX 172059
HRRWXR

CURRENT HOURLY OBSERVATIONS ACROSS
MUCH OF THE UPPER MISSISSIPPI VALLEY
NATIONAL WEATHER SERVICE LA CROSSE WI
300 PM CST WED DEC 17 2014


...SOUTHEAST MINNESOTA...


CITY           SKY/WX    TMP DP  RH WIND       PRES   REMARKS
ROCHESTER      PTSUNNY   19  13  77 NW7       30.25R WCI  10
ROCHESTER/MAYO MOCLDY    20  11  68 NW7       30.26R WCI  11
WINONA         PTSUNNY   23  14  68 N9        30.30S WCI  13
AUSTIN         SUNNY     21  14  73 NW8       30.24F WCI  12
ALBERT LEA     SUNNY     21  16  79 N9        30.24F WCI  11
DODGE CENTER   PTSUNNY   19  16  86 N7        30.25R WCI  10
PRESTON        MOSUNNY   20  13  76 NW8       30.25S WCI  10
OWATONNA       MOSUNNY   19  14  79 N6        30.26S WCI  11
FARIBAULT      SUNNY     19  12  73 NW7       30.28R WCI  10
$$

...ELSEWHERE IN MINNESOTA...


CITY           SKY/WX    TMP DP  RH WIND       PRES   REMARKS
MINNEAPOLIS    MOSUNNY   19  10  68 N9        30.29S WCI   8
INTNL FALLS    CLEAR     19   5  54 N6        30.30R WCI  11
DULUTH         PTCLDY    20  11  68 N5        30.24R WCI  13
RED WING       FLURRIES  21  10  63 N6        30.28S WCI  14
REDWOOD FALLS  SUNNY     19  12  74 NW8       30.29S WCI   9
MANKATO        MOSUNNY   19  10  68 NW8       30.28S WCI   9
WORTHINGTON    MOSUNNY   18  12  79 N5        30.25S WCI  11
FAIRMONT       SUNNY     19  12  73 NW8       30.26S WCI   9
$$

...SOUTHWEST WISCONSIN...


CITY           SKY/WX    TMP DP  RH WIND       PRES   REMARKS
LA CROSSE      PTSUNNY   24  12  60 NW8       30.28S WCI  15
PRAIRIE DU CHI SUNNY     25  13  61 W8        30.26F WCI  16
BOSCOBEL       MOSUNNY   26  14  60 VRB6      30.26F WCI  19
LONE ROCK      NOT AVBL
PLATTEVILLE    PTSUNNY   23  16  75 CALM      30.23F
FORT MC COY    CLOUDY    21  13  73 NW9       30.27S WCI  10
VIROQUA        FAIR      22  15  75 NW8       30.22S WCI  12
WIS DELLS      NOT AVBL
$$

...ELSEWHERE IN WISCONSIN...


CITY           SKY/WX    TMP DP  RH WIND       PRES   REMARKS
MILWAUKEE      PTSUNNY   26  14  60 NW17      30.19R WCI  13
MADISON        CLOUDY    24  15  68 NW8       30.22R WCI  15
GREEN BAY      CLEAR     27  16  63 NW17      30.16R WCI  14
EAU CLAIRE     NOT AVBL
BLACK RVR FLS  FLURRIES  20  12  71 W8        30.26S WCI  10
MEDFORD        CLOUDY    18  10  71 W10       30.19R WCI   6
WAUSAU         CLOUDY    21  13  71 W12       30.18R WCI   9
WIS RAPIDS     PTSUNNY   21  12  68 NW12      30.23R WCI   9
MARSHFIELD     MOSUNNY   19  11  70 NW14      30.21R WCI   6
RICE LAKE      CLOUDY    19  10  67 W6        30.28S WCI  11
$$

...NORTHEAST IOWA...


CITY           SKY/WX    TMP DP  RH WIND       PRES   REMARKS
DECORAH        SUNNY     23  14  68 N8        30.23F WCI  14
MASON CITY     SUNNY     22  15  75 N8        30.27R WCI  12
CHARLES CITY   SUNNY     23  18  80 N10       30.25S WCI  12
OELWEIN        SUNNY     23  16  74 NW9       30.24F WCI  13
$$

...ELSEWHERE IN IOWA...


CITY           SKY/WX    TMP DP  RH WIND       PRES   REMARKS
DES MOINES     PTSUNNY   30  14  51 N6        30.28S WCI  24
IOWA CITY      SUNNY     27  16  63 NW12      30.28S WCI  17
FORT DODGE     SUNNY     25  14  63 N3        30.28S
$$

...NORTHERN ILLINOIS...


CITY           SKY/WX    TMP DP  RH WIND       PRES   REMARKS
CHICAGO-OHARE  CLOUDY    26  16  65 W13       30.21R WCI  15
CHICAGO-MIDWAY CLOUDY    28  17  63 NW10      30.22R WCI  19
MOLINE         SUNNY     29  15  56 NW12      30.27R WCI  19
ROCKFORD       CLOUDY    24  15  68 NW12      30.25S WCI  13
PEORIA         MOSUNNY   28  18  66 W7        30.28S WCI  21
$$

NOTE: "FAIR" INDICATES FEW OR NO CLOUDS BELOW 12,000 FEET WITH NO
SIGNIFICANT WEATHER AND/OR OBSTRUCTIONS TO VISIBILITY. WIND
SPEEDS ARE IN MILES-PER-HOUR.



USA.gov is the U.S. government's official web portal to all federal, state and local government web resources and services.